524  
ASUS43 KEAX 182010  
RWREAX  
 
WEATHER ROUNDUP FOR EASTERN KANSAS AND NORTHWEST MISSOURI  
NATIONAL WEATHER SERVICE KANSAS CITY/PLEASANT HILL MO  
300 PM CDT WED SEP 18 2019  
 
KSZ040-057-103>105-MOZ028-029-037-043-182100-   
..KANSAS CITY METROPOLITAN AREA
 
 
 
CITY SKY/WX TMP DP RH WIND PRES REMARKS
 
K.C. INTL PTSUNNY 87 72 60 S9 29.98F HX 93  
K.C. DOWNTOWN MOSUNNY 93 68 43 S16G25 29.96F HX 97  
LEES SUMMIT MOSUNNY 91 69 48 S13 29.99F HX 96  
OLATHE - IXD MOSUNNY 92 68 45 S14 29.99F HX 96  
OLATHE - OJC SUNNY 89 67 47 S14G22 29.99F HX 92  
LAWRENCE MOSUNNY 94 68 42 S13G26 29.96F HX 98  
 

 
 
MOZ001>008-011>017-020>025-030>033-038>040-044>046-053-054-182100-   
..NORTHERN AND CENTRAL MISSOURI
 
 
 
CITY SKY/WX TMP DP RH WIND PRES REMARKS
 
ST. JOSEPH MOSUNNY 91 69 48 S13G23 29.95F HX 96  
MOSBY PTCLDY 90 64 43 S3 29.98F HX 91  
WARRENSBURG MOSUNNY 90 66 45 S8 30.00F HX 92  
WHITEMAN AFB MOSUNNY 92 69 47 SW12 29.96F HX 97  
CLINTON NOT AVBL  
SEDALIA MOSUNNY 90 69 50 S12G18 30.02F HX 94  
WARSAW NOT AVBL  
CHILLICOTHE N/A 91 70 49 SW6 29.99F HX 96  
KIRKSVILLE SUNNY 91 68 46 S8 30.02F HX 95  
 

 
 
MOZ041-047>049-056>058-063>065-088>090-097-182100-   
..EASTERN AND SOUTHERN MISSOURI
 
 
 
CITY SKY/WX TMP DP RH WIND PRES REMARKS
 
ST. LOUIS INTL MOSUNNY 89 67 47 CALM 30.04F HX 92  
SPIRIT OF STL SUNNY 91 67 44 SW3 30.02F HX 94  
COLUMBIA SUNNY 91 67 44 S5 30.02F HX 94  
JEFFERSON CITY MOSUNNY 92 67 43 NW3 30.00F HX 95  
ROLLA SUNNY 91 64 40 SE7 30.05F HX 92  
OSAGE BEACH MOSUNNY 93 68 43 VRB5 30.02F HX 97  
SPRINGFIELD MOSUNNY 94 63 35 SW8 30.01F HX 95  
BRANSON MOSUNNY 90 63 40 SE8 30.04F HX 90  
JOPLIN MOSUNNY 91 66 43 S12 30.00F HX 93  
WEST PLAINS MOSUNNY 93 65 39 CALM 30.05F HX 95  
 

 
 
IAZ060-094-KSZ022-034>040-054-083-096-NEZ052-066-093-182100-    
..KANSAS...SOUTHEAST NEBRASKA AND IOWA
 
 
 
CITY SKY/WX TMP DP RH WIND PRES REMARKS
 
TOPEKA MOSUNNY 92 67 43 S13G23 29.95F HX 95  
MANHATTAN SUNNY 93 67 42 SW16G26 29.92F HX 96  
EMPORIA SUNNY 90 68 48 S14G26 29.96F HX 94  
CHANUTE SUNNY 93 67 42 S16 29.98F HX 96  
WICHITA MOSUNNY 92 66 42 S22G29 29.93F HX 94  
OMAHA MOSUNNY 87 69 54 S13 29.93S HX 91  
LINCOLN MOSUNNY 91 67 44 SW13 29.92F HX 94  
FALLS CITY MOSUNNY 92 68 45 S10G21 29.93F HX 96  
DES MOINES LGT RAIN 86 70 58 S6 29.96F HX 90  
 

 
 
 
 
CLICK HERE TO GO TO PREVIOUS BULLETINS.

The Nexlab MO Page
The Nexlab KS Page Main Text Page